Regional Weather Roundup
Issued by NWS Sioux Falls, SD

Home | Current Version | Previous Version | Graphics & Text | Print | Product List | Glossary Off
Versions: 1 2 3 4 5 6 7 8 9 10 11 12 13 14 15 16 17 18 19 20 21 22 23 24 25 26 27 28 29 30 31 32 33 34 35 36 37 38 39 40 41 42 43 44 45 46 47 48 49 50

000
ASUS43 KFSD 221510
RWRFSD

WEATHER ROUNDUP FOR SE SOUTH DAKOTA/SW MINNESOTA/NW IOWA
NATIONAL WEATHER SERVICE SIOUX FALLS SD
1000 AM CDT MON SEP 22 2014

NOTE: "FAIR" INDICATES FEW OR NO CLOUDS BELOW 12,000 FEET WITH NO
SIGNIFICANT WEATHER AND OR OBSTRUCTIONS TO VISIBILITY.


SDZ038>040-050-052>070-221600-
SOUTHEAST SOUTH DAKOTA

CITY           SKY/WX    TMP DP  RH WIND       PRES   REMARKS
CHAMBERLAIN    SUNNY     60  49  68 SE8       30.20F
HURON          SUNNY     57  46  66 S7        30.23S
MADISON        FAIR      57  54  88 SW7       30.27S
MITCHELL       SUNNY     60  48  64 S6        30.25S
SIOUX FALLS    MOSUNNY   60  49  66 SW6       30.28S
WINNER         FAIR      64  46  52 S22G29    30.19S
YANKTON        SUNNY     54  50  87 CALM      30.28S
$$

MNZ071-072-080-081-089-090-097-098-221600-
SOUTHWEST MINNESOTA

CITY           SKY/WX    TMP DP  RH WIND       PRES   REMARKS
FAIRMONT       SUNNY     61  48  63 SW7       30.30S
JACKSON        SUNNY     59  50  72 SW8       30.31R
LUVERNE        SUNNY     55  50  82 SE3       30.29S
MARSHALL       SUNNY     63  46  55 SW15      30.26S
MONTEVIDEO     SUNNY     61  54  77 W6        30.26S
PIPESTONE      SUNNY     61  48  63 SW9       30.27F
REDWOOD FALLS  SUNNY     59  51  75 SW8       30.27S
TRACY          SUNNY     61  51  69 SW12      30.28S
WINDOM         SUNNY     59  50  72 SW8       30.30R
WORTHINGTON    SUNNY     61  48  63 SW8       30.30S
$$

IAZ001>003-012>014-020>022-031-032-NEZ013-014-SDZ071-221600-
NORTHWEST IOWA

CITY           SKY/WX    TMP DP  RH WIND       PRES   REMARKS
CHEROKEE       SUNNY     56  53  90 CALM      30.31S
DENISON        SUNNY     57  55  94 CALM      30.30S
ESTHERVILLE    SUNNY     59  51  75 W8        30.30S
LE MARS        SUNNY     57  52  82 SW5       30.30S
ORANGE CITY    SUNNY     61  52  72 S7        30.29S
SHELDON        SUNNY     59  52  77 S9        30.28F
SIOUX CITY     SUNNY     58  52  80 S3        30.30S
SPENCER        SUNNY     60  51  72 SW5       30.31S
$$

ABBREVIATIONS USED IN REMARKS
   TC - TEMPERATURE IN CELSIUS
  WCI - WIND CHILL INDEX
   HX - HEAT INDEX
  VSB - VISIBILITY




USA.gov is the U.S. government's official web portal to all federal, state and local government web resources and services.